Showing default

PELICAN-2 3009, 62631

Orbit data source: Space-Track

PELICAN-2 3009, 62631 is a payload satellite owned by Planet (US) in SSO that was launched on Tue, 14 Jan 2025 UTC via an FALCON 9 launch vehicle from the Air Force Western Test Range (AFWTR). Payload-class satellites include a variety of spacecraft equipped with specific instruments for various scientific and technological missions. These include communications satellites like Starlink; space stations such as the ISS; scientific satellites like the Hubble; Earth observation satellites from companies like Planet Labs, Umbra, and HawkEye 360; GPS; miniature CubeSats for education and research; and military/defense satellites.

Loading next visibility...
Identifier
62631, 2025-009Y
Orbit
SSO
Country
Flag of USUS
Related business
Manufacturer
Planet
Mission
Operational Commercial Imaging
Bus & Motor
PELICAN, XE AOCS
Mass
160 kg wet, 146 kg dry
Launch date (UTC)
2025-01-14 (1 year ago)
Launch vehicle
FALCON 9
Launch site
Air Force Western Test Range (AFWTR)
Object type
Payload
Rocket body
Debris
Shape & HBR
Box + 2 Pan, 1.0 m
Radar Cross Section
1.955 m², Large (>1 m²)

Expand to show TLE details & history
Last TLE update: 1 day ago

TLE from 1 day ago
0 PELICAN-2 3009
1 62631U 25009Y   26170.77332706  .00000023  00000-0  25488-5 0  9992
2 62631  97.2641 261.5843 0000781 166.9534 193.1733 15.40721230 79950
Epoch: 2026-06-19T18:33Z
TLE epoch observation values (Epoch: 2026-06-19T18:33:35.457Z)
Latitude
-0.00006°
Longitude
75.18908°
Altitude
447.621 km
Speed
7.643 km/s
True Right ascension
17h 26m 20s
True Declination
0° 00' 00"
Sunlit
Object was in full shadow at epoch
Visualization orbit readout
Latitude
Unknown
Longitude
Unknown
Altitude
Unknown
Speed
Unknown
Apparent Right ascension
Unknown
Apparent Declination
Unknown
Sunlit
N/A
Visualization observer readout
Local Sidereal Time
07:23:55
Azimuth
Unknown
Elevation
Unknown
Doppler factor
Unknown
Orbital elements
Apogee altitude
441.444 km
Perigee altitude
440.379 km
Semi-major axis
6,819.049 km
Eccentricity
0.00008
Inclination
97.2641°
RAAN
261.5843°
Arg. of periapsis
166.9534°
True anomaly
193.17126°
Mean anomaly
193.1733°
Eccentric anomaly
193.17228°
Mean motion
3.85441 °/min
Orbital period
93.4 mins
BSTAR
0.0000025488
Loading maneuver chart data...
Computing Atmospheric mass density...
Loading historical data...
Loading historical data...
Loading historical data...
Loading historical data...
Loading historical data...
Loading historical data...
Loading historical data...

Documentation

Showing up to 5 results
|